Weather History for Sisseton, SD

Change the Weather History Date:

Wednesday, November 13, 2013

  Actual Average Record
Temperature  
Mean Temperature 45 °F 32 °F  
Max Temperature 60 °F 42 °F 71 °F (1939)
Min Temperature 30 °F 23 °F -7 °F (1940)
Degree Days  
Heating Degree Days 20 33  
Month to date heating degree days 396 382  
Since 1 July heating degree days 1174 1209  
Cooling Degree Days 0 0  
Month to date cooling degree days 0 0  
Year to date cooling degree days 625 527  
Moisture  
Dew Point 30 °F    
Average Humidity 56    
Maximum Humidity 75    
Minimum Humidity 37    
Precipitation  
Precipitation 0.00 in 0.02 in 0.98 in (1993)
Month to date precipitation 0.05 0.36  
Year to date precipitation 27.41 21.72  
Snow  
Snow 0.00 in - - ()
Month to date snowfall 0.0  
Since 1 July snowfall 1.0  
Snow Depth 0.00 in    
Sea Level Pressure  
Sea Level Pressure 29.99 in    
Wind  
Wind Speed 9 mph (WSW)    
Max Wind Speed 26 mph    
Max Gust Speed 36 mph    
T = Trace of Precipitation, MM = Missing Value Source: NWS Daily Summary

Daily Weather History Graph

Daily Weather History Graph

Search for Another Location

Airport:

Trip Planner

Search our weather history database for the weather conditions in past years. The results will help you decide how hot, cold, wet, or windy it might be!

Date:

Astronomy

Nov. 13, 2013 Rise Set
Actual Time 7:25 AM CST 4:58 PM CST
Civil Twilight 6:53 AM CST 5:31 PM CST
Nautical Twilight 6:17 AM CST 6:06 PM CST
Astronomical Twilight 5:42 AM CST 6:41 PM CST
Moon 2:57 PM CST (11/13) 3:07 AM CST (11/13)
Length of Visible Light 10h 38m
Length of Day
9h 33m
Waxing Gibbous, 85% of the Moon is Illuminated
Nov 13
Waxing Gibbous
Nov 17
Full
Nov 25
Last Quarter
Dec 2
New
Dec 9
First Quarter

Hourly Weather History & Observations

Time (CST) Temp. Windchill Dew Point Humidity Pressure Visibility Wind Dir Wind Speed Gust Speed Precip Events Conditions
12:56 AM 30.9 °F 25.2 °F 21.0 °F 67% 30.25 in - South 5.8 mph - N/A   Unknown
1:38 AM 37.4 °F 27.5 °F 24.8 °F 60% 30.15 in - WSW 18.4 mph 29.9 mph N/A   Unknown
1:56 AM 33.1 °F 24.9 °F 24.1 °F 70% 30.20 in - SSW 10.4 mph - N/A   Unknown
2:56 AM 37.0 °F 28.9 °F 27.0 °F 67% 30.16 in - SW 12.7 mph 24.2 mph N/A   Unknown
3:56 AM 35.1 °F 28.6 °F 27.0 °F 72% 30.10 in - SSW 8.1 mph - N/A   Unknown
4:56 AM 35.1 °F 23.5 °F 27.0 °F 72% 30.07 in - WSW 21.9 mph 27.6 mph N/A   Unknown
5:56 AM 36.0 °F 28.5 °F 28.0 °F 73% 30.05 in - SSW 10.4 mph 23.0 mph N/A   Unknown
6:56 AM 34.0 °F 28.0 °F 27.0 °F 75% 30.05 in - SSW 6.9 mph - N/A   Unknown
7:56 AM 37.0 °F 28.1 °F 28.9 °F 73% 30.03 in - WSW 15.0 mph - N/A   Unknown
8:56 AM 42.1 °F 38.4 °F 30.9 °F 65% 30.00 in - Variable 5.8 mph - N/A   Unknown
9:56 AM 46.9 °F - 30.9 °F 54% 29.97 in - NW 9.2 mph - N/A   Unknown
10:20 AM 46.4 °F 38.7 °F 30.2 °F 53% 29.92 in - WSW 20.7 mph - N/A   Unknown
10:56 AM 50.0 °F - 32.0 °F 50% 29.96 in - West 19.6 mph - N/A   Unknown
11:56 AM 52.0 °F - 32.0 °F 47% 29.92 in - West 8.1 mph - N/A   Unknown
12:56 PM 59.0 °F - 33.1 °F 38% 29.90 in - Variable 4.6 mph - N/A   Unknown
1:56 PM 57.9 °F - 33.1 °F 39% 29.88 in - West 10.4 mph - N/A   Unknown
4:56 PM 53.1 °F - 35.1 °F 50% 29.87 in - West 12.7 mph - N/A   Unknown
5:56 PM 51.1 °F - 35.1 °F 54% 29.88 in - WNW 9.2 mph - N/A   Unknown
6:56 PM 44.1 °F - 33.1 °F 65% 29.89 in - Calm Calm - N/A   Unknown
7:56 PM 39.9 °F 35.8 °F 30.9 °F 70% 29.90 in - SSW 5.8 mph - N/A   Unknown
8:56 PM 46.0 °F 44.8 °F 34.0 °F 63% 29.90 in - NW 3.5 mph - N/A   Unknown
9:56 PM 41.0 °F - 33.1 °F 73% 29.90 in - Calm Calm - N/A   Unknown
10:56 PM 43.0 °F 40.3 °F 34.0 °F 71% 29.88 in - NW 4.6 mph - N/A   Unknown
11:56 PM 42.1 °F 38.4 °F 33.1 °F 70% 29.87 in - NW 5.8 mph - N/A   Unknown